Time,TemperatureF,DewpointF,PressureIn,WindDirection,WindDirectionDegrees,WindSpeedMPH,WindSpeedGustMPH,Humidity,HourlyPrecipIn,Conditions,Clouds,dailyrainin,SoftwareType,DateUTC
2013-04-15 00:59:00,44.9,42.7,29.87,WNW,302,10.0,10.0,92,0.00,,,0.00,Wunderground v.1.15,2013-04-15 07:59:00,
2013-04-15 01:29:00,43.8,41.6,29.87,WNW,292,10.0,10.0,92,0.00,,,0.00,Wunderground v.1.15,2013-04-15 08:29:00,
2013-04-15 01:59:00,42.9,40.7,29.86,WNW,292,11.0,13.0,92,0.00,,,0.00,Wunderground v.1.15,2013-04-15 08:59:00,
2013-04-15 02:29:00,42.2,40.3,29.87,NNW,344,4.0,4.0,93,0.00,,,0.00,Wunderground v.1.15,2013-04-15 09:29:00,
2013-04-15 02:59:00,42.7,40.3,29.87,WNW,293,8.0,10.0,91,0.00,,,0.00,Wunderground v.1.15,2013-04-15 09:59:00,
2013-04-15 03:29:00,42.0,39.6,29.87,WNW,282,8.0,9.0,91,0.00,,,0.00,Wunderground v.1.15,2013-04-15 10:29:00,
2013-04-15 03:59:00,41.6,39.4,29.87,WNW,284,8.0,8.0,92,0.00,,,0.00,Wunderground v.1.15,2013-04-15 10:59:00,
2013-04-15 04:29:00,41.5,39.1,29.87,NW,309,7.0,8.0,91,0.00,,,0.00,Wunderground v.1.15,2013-04-15 11:29:00,
2013-04-15 04:59:00,41.8,39.1,29.87,NNW,334,5.0,5.0,90,0.00,,,0.00,Wunderground v.1.15,2013-04-15 11:59:00,
2013-04-15 05:29:00,41.7,39.0,29.87,NW,304,6.0,8.0,90,0.00,,,0.00,Wunderground v.1.15,2013-04-15 12:29:00,
2013-04-15 05:59:00,41.3,38.3,29.87,NW,325,7.0,9.0,89,0.00,,,0.00,Wunderground v.1.15,2013-04-15 12:59:00,
2013-04-15 06:29:00,41.2,37.9,29.88,NW,312,7.0,7.0,88,0.00,,,0.00,Wunderground v.1.15,2013-04-15 13:29:00,
2013-04-15 06:59:00,40.6,37.3,29.89,NW,309,9.0,11.0,88,0.00,,,0.00,Wunderground v.1.15,2013-04-15 13:59:00,
2013-04-15 07:29:00,41.2,37.0,29.90,WNW,288,10.0,13.0,85,0.00,,,0.00,Wunderground v.1.15,2013-04-15 14:29:00,
2013-04-15 07:59:00,42.2,36.8,29.91,WNW,294,11.0,11.0,81,0.00,,,0.00,Wunderground v.1.15,2013-04-15 14:59:00,
2013-04-15 08:29:00,43.7,37.3,29.91,WNW,301,10.0,10.0,78,0.00,,,0.00,Wunderground v.1.15,2013-04-15 15:29:00,
2013-04-15 08:59:00,45.4,36.9,29.91,WNW,303,9.0,10.0,72,0.00,,,0.00,Wunderground v.1.15,2013-04-15 15:59:00,
2013-04-15 09:29:00,46.5,35.7,29.91,WNW,290,11.0,13.0,66,0.00,,,0.00,Wunderground v.1.15,2013-04-15 16:29:00,
2013-04-15 09:59:00,47.6,36.0,29.91,WNW,291,12.0,13.0,64,0.00,,,0.00,Wunderground v.1.15,2013-04-15 16:59:00,
2013-04-15 10:29:00,49.0,36.5,29.91,WNW,300,11.0,11.0,62,0.00,,,0.00,Wunderground v.1.15,2013-04-15 17:29:00,
2013-04-15 10:59:00,50.7,36.9,29.91,WNW,282,11.0,13.0,59,0.00,,,0.00,Wunderground v.1.15,2013-04-15 17:59:00,
2013-04-15 11:29:00,52.0,36.3,29.91,NW,307,13.0,13.0,55,0.00,,,0.00,Wunderground v.1.15,2013-04-15 18:29:00,
2013-04-15 11:59:00,52.4,37.2,29.91,WNW,294,14.0,19.0,56,0.00,,,0.00,Wunderground v.1.15,2013-04-15 18:59:00,
2013-04-15 12:29:00,52.1,36.9,29.91,WNW,300,18.0,18.0,56,0.00,,,0.00,Wunderground v.1.15,2013-04-15 19:29:00,
2013-04-15 12:59:00,53.1,38.7,29.90,WNW,297,14.0,19.0,58,0.00,,,0.00,Wunderground v.1.15,2013-04-15 19:59:00,
2013-04-15 13:29:00,52.3,38.0,29.90,WNW,298,16.0,19.0,58,0.00,,,0.00,Wunderground v.1.15,2013-04-15 20:29:00,
2013-04-15 13:59:00,51.2,38.6,29.90,WNW,287,18.0,18.0,62,0.00,,,0.00,Wunderground v.1.15,2013-04-15 20:59:00,
2013-04-15 14:29:00,51.4,37.5,29.89,NW,315,18.0,18.0,59,0.00,,,0.00,Wunderground v.1.15,2013-04-15 21:29:00,
2013-04-15 14:59:00,51.7,37.4,29.89,WNW,298,16.0,18.0,58,0.00,,,0.00,Wunderground v.1.15,2013-04-15 21:59:00,
2013-04-15 15:29:00,51.0,37.2,29.89,WNW,297,16.0,16.0,59,0.00,,,0.00,Wunderground v.1.15,2013-04-15 22:29:00,
2013-04-15 15:59:00,50.4,35.7,29.88,NW,314,17.0,17.0,57,0.00,,,0.00,Wunderground v.1.15,2013-04-15 22:59:00,
2013-04-15 16:29:00,49.8,35.2,29.88,WNW,289,17.0,17.0,57,0.00,,,0.00,Wunderground v.1.15,2013-04-15 23:29:00,
2013-04-15 16:59:00,49.5,36.2,29.87,WNW,295,15.0,15.0,60,0.00,,,0.00,Wunderground v.1.15,2013-04-15 23:59:00,
2013-04-15 17:29:00,48.3,37.1,29.87,WNW,292,17.0,33.0,65,0.00,,,0.00,Wunderground v.1.15,2013-04-16 00:29:00,
2013-04-15 17:59:00,48.2,37.4,29.88,WNW,292,15.0,15.0,66,0.00,,,0.00,Wunderground v.1.15,2013-04-16 00:59:00,
2013-04-15 18:29:00,47.6,36.8,29.88,NW,311,13.0,13.0,66,0.00,,,0.00,Wunderground v.1.15,2013-04-16 01:29:00,
2013-04-15 18:59:00,45.9,36.7,29.88,NNW,338,11.0,11.0,70,0.00,,,0.00,Wunderground v.1.15,2013-04-16 01:59:00,
2013-04-15 19:29:00,44.7,36.2,29.89,NW,307,11.0,11.0,72,0.00,,,0.00,Wunderground v.1.15,2013-04-16 02:29:00,
2013-04-15 19:59:00,43.9,36.1,29.89,WNW,284,11.0,16.0,74,0.00,,,0.00,Wunderground v.1.15,2013-04-16 02:59:00,
2013-04-15 20:29:00,43.5,36.4,29.90,WNW,291,11.0,11.0,76,0.00,,,0.00,Wunderground v.1.15,2013-04-16 03:29:00,
2013-04-15 20:59:00,43.3,36.6,29.92,WNW,290,11.0,12.0,77,0.00,,,0.00,Wunderground v.1.15,2013-04-16 03:59:00,
2013-04-15 21:29:00,42.8,36.1,29.93,WNW,288,9.0,9.0,77,0.00,,,0.00,Wunderground v.1.15,2013-04-16 04:29:00,
2013-04-15 21:59:00,42.6,35.9,29.94,WNW,296,10.0,12.0,77,0.00,,,0.00,Wunderground v.1.15,2013-04-16 04:59:00,
2013-04-15 22:29:00,42.5,35.5,29.96,NW,307,10.0,10.0,76,0.00,,,0.00,Wunderground v.1.15,2013-04-16 05:29:00,
2013-04-15 22:59:00,42.4,35.4,29.96,WNW,285,7.0,9.0,76,0.00,,,0.00,Wunderground v.1.15,2013-04-16 05:59:00,
2013-04-15 23:29:00,42.4,34.4,29.96,NW,313,6.0,6.0,73,0.00,,,0.00,Wunderground v.1.15,2013-04-16 06:29:00,
2013-04-15 23:59:00,41.9,34.6,29.97,WNW,300,8.0,8.0,75,0.00,,,0.00,Wunderground v.1.15,2013-04-16 06:59:00,